Location: Marcé
(47.5801°N, 0.3280°W)
Time: 16:46:45
(UTC+01:00)

SR - Pass Details

Date: 05 December 2021
Orbit: 582 x 872 km, 66.7° (Epoch: 22 January)

Event Time Altitude Azimuth Distance (km) Brightness Sun altitude
Rises 10:05:31 0° 310° (NW) 2,836 ? 10.6°
Reaches altitude 10° 10:08:26 10° 289° (WNW) 1,957 ? 11.0°
Maximum altitude 10:11:08 16° 251° (WSW) 1,622 ? 11.2°
Drops below altitude 10° 10:13:53 10° 213° (SSW) 2,023 ? 11.5°
Sets 10:16:59 0° 192° (SSW) 2,983 ? 11.8°
